Tracking 30106 objects as of 23-Jan-2025
HD Live streaming from Space Station
objects crossing your sky now

COSMOS 249 DEB

Track COSMOS 249 DEB now!
10-day predictions


NORAD ID: 19362
Int'l Code: 1968-091DJ
Perigee: 519.3 km
Apogee: 1,182.1 km
Inclination: 62.8 °
Period: 101.8 minutes
Semi major axis: 7221 km
RCS: 0.01 m2 (small)
Launch date: October 20, 1968
Source: Commonwealth of Independent States (former USSR) (CIS)
Launch site: TYURATAM MISSILE AND SPACE COMPLEX (TTMTR)

Note: This is SATELLITE DEBRIS
Your satellite tracking list
Your tracking list is empty




NASA's NSSDC Master Catalog

Two Line Element Set (TLE):
1 19362U 68091DJ  25023.10000860  .00015424  00000-0  28677-2 0  9990
2 19362  62.7841  56.9187 0458881 343.1366  15.4850 14.14639932847483
Source of the keplerian elements: AFSPC